Погода в Воскресенском

Россия / Нижегородская область     56°50′09″N   45°26′09″E
темп.,
°C
ветер,
м/с
пор.,
м/с
влажн.,
%
обл.,
%
осадки,
мм/ч
давл.,
гПа
погр.,
м
18 мая, вт
вт1800:00+16в39957 0.9 1017186
03:00+15в2397100 0.9 101747
06:00+18вюв379294 0.0 1017213
09:00+23вюв466430 0.1 1017654
12:00+27юв464534 0.0 10171361
15:00+28юв464259 0.0 10161734
18:00+25юв386018 0.0 1016622
21:00+19в312865 0.0 1016308
19 мая, ср
ср1900:00+18вюв312815 0.0 1017355
03:00+16вюв4138018 0.0 1016315
06:00+17вюв4127155 0.0 1017397
09:00+23вюв595359 0.0 1017751
12:00+26вюв684315 0.0 10161276
15:00+26юв68425 0.0 10151363
18:00+23юв511530 0.0 1015869
21:00+19вюв414690 0.0 1015463
20 мая, чт
чт2000:00+17вюв415740 0.0 1015437
03:00+16вюв413785 0.0 1015389
06:00+18юв413742 0.0 1015464
09:00+23юв58545 0.0 1015871
12:00+25юв69482 0.0 10141746
15:00+26юв611460 0.0 10132175
18:00+23юв61256100 0.0 10121273
21:00+16ююв4138175 0.1 1014676
21 мая, пт
пт2100:00+14ююв488777 0.0 1014412
03:00+12юв3109618 0.0 1014325
06:00+15ююв412843 0.0 1014621
09:00+19ю696141 0.0 10131407
12:00+21ююз7105083 0.1 10141937
15:00+22юз7114734 0.1 10142255
18:00+19юз5106023 0.1 10151481
21:00+15юз411721 0.1 1017904
22 мая, сб
сб2200:00+13юз41180100 0.0 1018843
03:00+10юз2692100 0.0 1020207
06:00+12зюз3779100 0.0 1022429
09:00+15юз3465100 0.1 1021823
12:00+11ююз2496100 9.3 1023269
15:00+11зюз1297100 12.7 1023190
18:00+12в1295100 1.4 1022170
21:00+12всв3698100 3.3 1019249